Location: Perryvale
(54.4667°N, 113.3833°W)
Time: 20:53:59
(UTC+00:00)

Transit 2A - Pass Details

Date: 28 May 2024
Orbit: 592 x 959 km, 66.7° (Epoch: 19 June)

Event Time Altitude Azimuth Distance (km) Brightness Sun altitude
Rises 06:22:45 0° 239° (WSW) 3,013 8.9 -12.6°
Reaches altitude 10° 06:25:01 10° 244° (WSW) 2,151 8.2 -12.7°
Maximum altitude 06:29:48 53° 322° (NW) 920 6.8 -12.9°
Drops below altitude 10° 06:35:10 10° 39° (NE) 2,401 9.1 -13.0°
Sets 06:37:49 0° 44° (NE) 3,398 9.8 -13.1°
